Time,TemperatureF,DewpointF,PressureIn,WindDirection,WindDirectionDegrees,WindSpeedMPH,WindSpeedGustMPH,Humidity,HourlyPrecipIn,Conditions,Clouds,dailyrainin,SoftwareType,DateUTC
2013-03-15 00:00:00,28.4,11.7,29.90,West,270,30.1,30.1,49,-99.99,,,-99.99,tws,2013-03-15 04:00:00,
2013-03-15 00:04:00,28.6,11.5,29.89,WSW,247,27.0,27.0,48,-99.99,,,-99.99,tws,2013-03-15 04:04:00,
2013-03-15 00:05:00,28.4,11.6,29.89,NW,315,23.3,23.3,49,-99.99,,,-99.99,tws,2013-03-15 04:05:00,
2013-03-15 00:10:00,28.3,11.8,29.90,NW,315,9.4,9.4,49,-99.99,,,-99.99,tws,2013-03-15 04:10:00,
2013-03-15 00:15:00,28.4,11.7,29.89,NW,315,15.6,15.6,49,-99.99,,,-99.99,tws,2013-03-15 04:15:00,
2013-03-15 00:16:00,28.2,12.0,29.90,NW,315,13.7,13.7,50,-99.99,,,-99.99,tws,2013-03-15 04:16:00,
2013-03-15 00:22:00,28.3,11.8,29.90,West,270,12.6,12.6,49,-99.99,,,-99.99,tws,2013-03-15 04:22:00,
2013-03-15 00:27:00,28.2,11.9,29.90,WNW,292,20.7,20.7,50,-99.99,,,-99.99,tws,2013-03-15 04:27:00,
2013-03-15 00:32:00,28.3,11.9,29.90,NW,315,18.7,18.7,49,-99.99,,,-99.99,tws,2013-03-15 04:32:00,
2013-03-15 00:37:00,28.3,11.5,29.90,NW,315,20.4,20.4,49,-99.99,,,-99.99,tws,2013-03-15 04:37:00,
2013-03-15 00:42:00,28.3,11.5,29.90,West,270,17.7,17.7,49,-99.99,,,-99.99,tws,2013-03-15 04:42:00,
2013-03-15 00:48:00,28.2,11.5,29.90,WNW,292,20.0,20.0,49,-99.99,,,-99.99,tws,2013-03-15 04:48:00,
2013-03-15 00:53:00,28.2,11.2,29.90,WNW,292,24.1,24.1,48,-99.99,,,-99.99,tws,2013-03-15 04:53:00,
2013-03-15 00:58:00,28.2,11.5,29.90,NW,315,13.2,13.2,49,-99.99,,,-99.99,tws,2013-03-15 04:58:00,
2013-03-15 01:03:00,28.1,11.3,29.90,NW,315,14.9,14.9,49,-99.99,,,-99.99,tws,2013-03-15 05:03:00,
2013-03-15 01:08:00,28.1,11.3,29.91,WNW,292,13.6,13.6,49,-99.99,,,-99.99,tws,2013-03-15 05:08:00,
2013-03-15 01:13:00,27.9,11.3,29.91,NW,315,7.6,7.6,49,-99.99,,,-99.99,tws,2013-03-15 05:13:00,
2013-03-15 01:18:00,27.7,11.2,29.91,North,0,8.2,8.2,49,-99.99,,,-99.99,tws,2013-03-15 05:18:00,
2013-03-15 01:23:00,27.5,11.0,29.91,West,270,9.0,9.0,49,-99.99,,,-99.99,tws,2013-03-15 05:23:00,
2013-03-15 01:28:00,27.6,11.1,29.91,WNW,292,13.0,13.0,49,-99.99,,,-99.99,tws,2013-03-15 05:28:00,
2013-03-15 01:33:00,27.7,10.9,29.91,NNW,337,15.2,15.2,48,-99.99,,,-99.99,tws,2013-03-15 05:33:00,
2013-03-15 01:38:00,27.4,11.1,29.91,WNW,292,9.4,9.4,50,-99.99,,,-99.99,tws,2013-03-15 05:38:00,
2013-03-15 01:43:00,27.5,10.6,29.91,WNW,292,13.8,13.8,48,-99.99,,,-99.99,tws,2013-03-15 05:43:00,
2013-03-15 01:48:00,27.2,11.1,29.91,WNW,292,7.5,7.5,50,-99.99,,,-99.99,tws,2013-03-15 05:48:00,
2013-03-15 01:53:00,27.4,10.9,29.91,WNW,292,16.8,16.8,49,-99.99,,,-99.99,tws,2013-03-15 05:53:00,
2013-03-15 01:58:00,27.7,10.5,29.91,WNW,292,15.5,15.5,48,-99.99,,,-99.99,tws,2013-03-15 05:58:00,
2013-03-15 02:04:00,27.4,10.6,29.91,NW,315,13.8,13.8,48,-99.99,,,-99.99,tws,2013-03-15 06:04:00,
2013-03-15 02:10:00,27.2,10.8,29.91,NNW,337,6.0,6.0,49,-99.99,,,-99.99,tws,2013-03-15 06:10:00,
2013-03-15 02:15:00,27.0,10.9,29.91,WNW,292,8.3,8.3,50,-99.99,,,-99.99,tws,2013-03-15 06:15:00,
2013-03-15 02:20:00,27.2,10.6,29.91,NNW,337,12.8,12.8,49,-99.99,,,-99.99,tws,2013-03-15 06:20:00,
2013-03-15 02:25:00,27.1,10.3,29.91,NNW,337,10.9,10.9,49,-99.99,,,-99.99,tws,2013-03-15 06:25:00,
2013-03-15 02:30:00,27.0,10.5,29.91,North,360,6.7,6.7,49,-99.99,,,-99.99,tws,2013-03-15 06:30:00,
2013-03-15 02:35:00,27.0,10.3,29.92,NNW,337,20.6,20.6,49,-99.99,,,-99.99,tws,2013-03-15 06:35:00,
2013-03-15 02:40:00,26.7,10.7,29.91,NW,315,13.4,13.4,50,-99.99,,,-99.99,tws,2013-03-15 06:40:00,
2013-03-15 02:45:00,26.5,10.3,29.91,NNW,337,11.0,11.0,50,-99.99,,,-99.99,tws,2013-03-15 06:45:00,
2013-03-15 02:50:00,26.3,10.8,29.91,NNW,337,8.5,8.5,51,-99.99,,,-99.99,tws,2013-03-15 06:50:00,
2013-03-15 02:55:00,26.1,10.9,29.91,NNW,337,14.4,14.4,52,-99.99,,,-99.99,tws,2013-03-15 06:55:00,
2013-03-15 03:00:00,26.1,11.2,29.91,NW,315,14.1,14.1,53,-99.99,,,-99.99,tws,2013-03-15 07:00:00,
2013-03-15 03:05:00,26.1,10.9,29.91,NW,315,12.0,12.0,52,-99.99,,,-99.99,tws,2013-03-15 07:05:00,
2013-03-15 03:10:00,26.1,10.9,29.91,NNW,337,10.8,10.8,52,-99.99,,,-99.99,tws,2013-03-15 07:10:00,
2013-03-15 03:17:00,26.1,11.2,29.91,NNW,337,9.3,9.3,53,-99.99,,,-99.99,tws,2013-03-15 07:17:00,
2013-03-15 03:22:00,26.0,11.4,29.91,NW,315,12.9,12.9,53,-99.99,,,-99.99,tws,2013-03-15 07:22:00,
2013-03-15 03:27:00,26.1,11.8,29.91,North,360,7.1,7.1,54,-99.99,,,-99.99,tws,2013-03-15 07:27:00,
2013-03-15 03:32:00,25.5,11.7,29.91,NE,45,9.0,9.0,55,-99.99,,,-99.99,tws,2013-03-15 07:32:00,
2013-03-15 03:37:00,25.6,11.7,29.91,NW,315,11.5,11.5,55,-99.99,,,-99.99,tws,2013-03-15 07:37:00,
2013-03-15 03:43:00,25.6,11.5,29.91,WNW,292,8.2,8.2,54,-99.99,,,-99.99,tws,2013-03-15 07:43:00,
2013-03-15 03:48:00,25.5,11.7,29.91,North,360,2.6,2.6,55,-99.99,,,-99.99,tws,2013-03-15 07:48:00,
2013-03-15 03:53:00,25.2,11.6,29.91,North,0,8.0,8.0,55,-99.99,,,-99.99,tws,2013-03-15 07:53:00,
2013-03-15 03:58:00,25.2,11.8,29.91,West,270,7.9,7.9,56,-99.99,,,-99.99,tws,2013-03-15 07:58:00,
2013-03-15 04:03:00,25.2,11.7,29.91,NW,315,7.9,7.9,56,-99.99,,,-99.99,tws,2013-03-15 08:03:00,
2013-03-15 04:08:00,25.2,11.8,29.91,NNW,337,11.7,11.7,56,-99.99,,,-99.99,tws,2013-03-15 08:08:00,
2013-03-15 04:13:00,24.8,12.3,29.91,NNW,337,7.2,7.2,58,-99.99,,,-99.99,tws,2013-03-15 08:13:00,
2013-03-15 04:18:00,25.0,12.2,29.91,NNW,337,6.0,6.0,57,-99.99,,,-99.99,tws,2013-03-15 08:18:00,
2013-03-15 04:23:00,24.8,12.3,29.91,North,0,5.4,5.4,58,-99.99,,,-99.99,tws,2013-03-15 08:23:00,
2013-03-15 04:28:00,24.7,12.6,29.91,North,0,4.6,4.6,59,-99.99,,,-99.99,tws,2013-03-15 08:28:00,
2013-03-15 04:34:00,24.7,12.7,29.91,NNE,22,2.0,2.0,60,-99.99,,,-99.99,tws,2013-03-15 08:34:00,
2013-03-15 04:40:00,24.3,13.2,29.91,NE,45,7.5,7.5,62,-99.99,,,-99.99,tws,2013-03-15 08:40:00,
2013-03-15 04:45:00,23.7,14.0,29.91,NNE,22,6.0,6.0,66,-99.99,,,-99.99,tws,2013-03-15 08:45:00,
2013-03-15 04:52:00,23.4,14.5,29.91,NNE,22,5.5,5.5,68,-99.99,,,-99.99,tws,2013-03-15 08:52:00,
2013-03-15 04:57:00,23.1,14.7,29.91,NE,45,10.0,10.0,69,-99.99,,,-99.99,tws,2013-03-15 08:57:00,
2013-03-15 05:02:00,23.0,14.7,29.91,NNE,22,12.6,12.6,70,-99.99,,,-99.99,tws,2013-03-15 09:02:00,
2013-03-15 05:07:00,22.7,14.6,29.91,NNE,22,12.6,12.6,70,-99.99,,,-99.99,tws,2013-03-15 09:07:00,
2013-03-15 05:12:00,22.7,14.8,29.91,NNE,22,11.9,11.9,71,-99.99,,,-99.99,tws,2013-03-15 09:12:00,
2013-03-15 05:17:00,22.6,14.7,29.91,North,360,13.2,13.2,71,-99.99,,,-99.99,tws,2013-03-15 09:17:00,
2013-03-15 05:23:00,22.5,14.6,29.91,NNE,22,8.9,8.9,71,-99.99,,,-99.99,tws,2013-03-15 09:23:00,
2013-03-15 05:28:00,22.3,14.6,29.91,NNE,22,8.2,8.2,71,-99.99,,,-99.99,tws,2013-03-15 09:28:00,
2013-03-15 05:33:00,22.2,14.4,29.91,NNE,22,11.3,11.3,71,-99.99,,,-99.99,tws,2013-03-15 09:33:00,
2013-03-15 05:38:00,22.6,14.7,29.91,NNE,22,7.1,7.1,71,-99.99,,,-99.99,tws,2013-03-15 09:38:00,
2013-03-15 05:44:00,22.3,14.4,29.91,NNE,22,10.0,10.0,71,-99.99,,,-99.99,tws,2013-03-15 09:44:00,
2013-03-15 05:49:00,22.2,14.5,29.91,NNE,22,4.5,4.5,71,-99.99,,,-99.99,tws,2013-03-15 09:49:00,
2013-03-15 05:54:00,22.5,14.8,29.91,East,90,1.2,1.2,72,-99.99,,,-99.99,tws,2013-03-15 09:54:00,
2013-03-15 05:59:00,22.5,15.0,29.91,SSE,157,0.0,0.0,72,-99.99,,,-99.99,tws,2013-03-15 09:59:00,
2013-03-15 06:04:00,23.0,15.4,29.91,SE,135,0.0,0.0,72,-99.99,,,-99.99,tws,2013-03-15 10:04:00,
2013-03-15 06:09:00,22.3,14.6,29.91,NNE,22,0.0,0.0,71,-99.99,,,-99.99,tws,2013-03-15 10:09:00,
2013-03-15 06:14:00,22.2,14.7,29.92,SSE,157,1.2,1.2,72,-99.99,,,-99.99,tws,2013-03-15 10:14:00,
2013-03-15 06:19:00,22.2,14.7,29.91,SE,135,0.1,0.1,72,-99.99,,,-99.99,tws,2013-03-15 10:19:00,
2013-03-15 06:25:00,22.2,15.1,29.91,ESE,112,0.6,0.6,73,-99.99,,,-99.99,tws,2013-03-15 10:25:00,
2013-03-15 06:30:00,22.2,15.1,29.91,South,180,0.0,0.0,73,-99.99,,,-99.99,tws,2013-03-15 10:30:00,
2013-03-15 06:35:00,21.9,14.5,29.91,SE,135,4.1,4.1,72,-99.99,,,-99.99,tws,2013-03-15 10:35:00,
2013-03-15 06:40:00,21.1,13.7,29.91,East,90,6.9,6.9,72,-99.99,,,-99.99,tws,2013-03-15 10:40:00,
2013-03-15 06:45:00,20.9,13.6,29.91,NE,45,3.5,3.5,73,-99.99,,,-99.99,tws,2013-03-15 10:45:00,
2013-03-15 06:50:00,21.3,13.6,29.91,ENE,67,3.5,3.5,71,-99.99,,,-99.99,tws,2013-03-15 10:50:00,
2013-03-15 06:56:00,20.9,13.3,29.91,ENE,67,8.1,8.1,72,-99.99,,,-99.99,tws,2013-03-15 10:56:00,
2013-03-15 07:02:00,21.8,13.6,29.91,ENE,67,5.6,5.6,70,-99.99,,,-99.99,tws,2013-03-15 11:02:00,
2013-03-15 07:08:00,21.8,13.9,29.91,SE,135,0.2,0.2,71,-99.99,,,-99.99,tws,2013-03-15 11:08:00,
2013-03-15 07:13:00,20.4,13.7,29.91,WSW,247,0.0,0.0,75,-99.99,,,-99.99,tws,2013-03-15 11:13:00,
2013-03-15 07:18:00,21.6,14.2,29.91,ESE,112,2.6,2.6,73,-99.99,,,-99.99,tws,2013-03-15 11:18:00,
2013-03-15 07:23:00,21.1,14.2,29.91,NE,45,4.9,4.9,74,-99.99,,,-99.99,tws,2013-03-15 11:23:00,
2013-03-15 07:28:00,21.1,13.8,29.90,SSE,157,1.6,1.6,73,-99.99,,,-99.99,tws,2013-03-15 11:28:00,
2013-03-15 07:33:00,21.7,14.4,29.90,SSE,157,2.9,2.9,73,-99.99,,,-99.99,tws,2013-03-15 11:33:00,
2013-03-15 07:38:00,22.3,14.8,29.90,SE,135,2.8,2.8,72,-99.99,,,-99.99,tws,2013-03-15 11:38:00,
2013-03-15 07:43:00,22.1,14.7,29.90,NNE,22,2.6,2.6,72,-99.99,,,-99.99,tws,2013-03-15 11:43:00,
2013-03-15 07:48:00,22.2,14.6,29.90,NE,45,5.0,5.0,72,-99.99,,,-99.99,tws,2013-03-15 11:48:00,
2013-03-15 07:53:00,22.5,14.6,29.90,NNE,22,2.5,2.5,71,-99.99,,,-99.99,tws,2013-03-15 11:53:00,
2013-03-15 07:58:00,23.0,15.0,29.90,SE,135,0.4,0.4,71,-99.99,,,-99.99,tws,2013-03-15 11:58:00,
2013-03-15 08:03:00,23.4,15.1,29.90,East,90,0.0,0.0,70,-99.99,,,-99.99,tws,2013-03-15 12:03:00,
2013-03-15 08:08:00,23.5,14.6,29.90,ENE,67,2.0,2.0,68,-99.99,,,-99.99,tws,2013-03-15 12:08:00,
2013-03-15 08:13:00,23.0,14.0,29.89,NE,45,6.4,6.4,67,-99.99,,,-99.99,tws,2013-03-15 12:13:00,
2013-03-15 08:18:00,24.7,15.4,29.89,East,90,2.2,2.2,67,-99.99,,,-99.99,tws,2013-03-15 12:18:00,
2013-03-15 08:23:00,24.4,14.9,29.89,SSE,157,0.0,0.0,67,-99.99,,,-99.99,tws,2013-03-15 12:23:00,
2013-03-15 08:28:00,24.6,15.1,29.90,SE,135,6.1,6.1,66,-99.99,,,-99.99,tws,2013-03-15 12:28:00,
2013-03-15 08:33:00,25.5,15.0,29.90,SSE,157,0.4,0.4,64,-99.99,,,-99.99,tws,2013-03-15 12:33:00,
2013-03-15 08:38:00,26.6,16.1,29.89,East,90,0.4,0.4,64,-99.99,,,-99.99,tws,2013-03-15 12:38:00,
2013-03-15 08:43:00,25.7,15.1,29.89,East,90,4.1,4.1,63,-99.99,,,-99.99,tws,2013-03-15 12:43:00,
2013-03-15 08:48:00,26.7,15.7,29.89,ESE,112,4.5,4.5,62,-99.99,,,-99.99,tws,2013-03-15 12:48:00,
2013-03-15 08:53:00,26.8,15.8,29.89,SE,135,5.0,5.0,62,-99.99,,,-99.99,tws,2013-03-15 12:53:00,
2013-03-15 08:58:00,27.4,16.0,29.89,SSE,157,1.4,1.4,62,-99.99,,,-99.99,tws,2013-03-15 12:58:00,
2013-03-15 09:03:00,28.0,16.3,29.89,ESE,112,3.9,3.9,61,-99.99,,,-99.99,tws,2013-03-15 13:03:00,
2013-03-15 09:08:00,27.6,16.0,29.88,SE,135,7.5,7.5,61,-99.99,,,-99.99,tws,2013-03-15 13:08:00,
2013-03-15 09:13:00,28.5,16.5,29.88,ESE,112,5.3,5.3,60,-99.99,,,-99.99,tws,2013-03-15 13:13:00,
2013-03-15 09:18:00,29.0,16.8,29.88,SE,135,3.3,3.3,60,-99.99,,,-99.99,tws,2013-03-15 13:18:00,
2013-03-15 09:23:00,28.8,16.7,29.88,ESE,112,10.3,10.3,60,-99.99,,,-99.99,tws,2013-03-15 13:23:00,
2013-03-15 09:28:00,28.6,16.4,29.87,SSE,157,12.1,12.1,59,-99.99,,,-99.99,tws,2013-03-15 13:28:00,
2013-03-15 09:33:00,28.6,16.4,29.87,South,180,10.7,10.7,59,-99.99,,,-99.99,tws,2013-03-15 13:33:00,
2013-03-15 09:38:00,29.7,17.3,29.87,South,180,10.3,10.3,59,-99.99,,,-99.99,tws,2013-03-15 13:38:00,
2013-03-15 09:43:00,30.1,17.3,29.87,SSE,157,3.3,3.3,58,-99.99,,,-99.99,tws,2013-03-15 13:43:00,
2013-03-15 09:48:00,29.8,16.6,29.87,SE,135,5.5,5.5,57,-99.99,,,-99.99,tws,2013-03-15 13:48:00,
2013-03-15 09:53:00,29.7,16.7,29.86,SSE,157,13.5,13.5,58,-99.99,,,-99.99,tws,2013-03-15 13:53:00,
2013-03-15 09:58:00,30.8,17.7,29.87,South,180,8.8,8.8,57,-99.99,,,-99.99,tws,2013-03-15 13:58:00,
2013-03-15 10:03:00,29.4,16.8,29.86,SSW,202,10.3,10.3,58,-99.99,,,-99.99,tws,2013-03-15 14:03:00,
2013-03-15 10:08:00,30.2,17.1,29.86,SSE,157,11.9,11.9,57,-99.99,,,-99.99,tws,2013-03-15 14:08:00,
2013-03-15 10:13:00,31.6,17.7,29.85,South,180,6.7,6.7,56,-99.99,,,-99.99,tws,2013-03-15 14:13:00,
2013-03-15 10:18:00,32.6,18.2,29.85,SE,135,12.3,12.3,55,-99.99,,,-99.99,tws,2013-03-15 14:18:00,
2013-03-15 10:23:00,32.8,17.6,29.84,South,180,12.8,12.8,53,-99.99,,,-99.99,tws,2013-03-15 14:23:00,
2013-03-15 10:28:00,32.0,17.4,29.84,SSE,157,8.9,8.9,54,-99.99,,,-99.99,tws,2013-03-15 14:28:00,
2013-03-15 10:33:00,33.0,17.7,29.84,SW,225,11.9,11.9,53,-99.99,,,-99.99,tws,2013-03-15 14:33:00,
2013-03-15 10:38:00,32.5,17.3,29.84,South,180,19.4,19.4,53,-99.99,,,-99.99,tws,2013-03-15 14:38:00,
2013-03-15 10:43:00,33.7,18.3,29.83,SW,225,11.0,11.0,52,-99.99,,,-99.99,tws,2013-03-15 14:43:00,
2013-03-15 10:48:00,33.7,18.5,29.83,South,180,12.7,12.7,53,-99.99,,,-99.99,tws,2013-03-15 14:48:00,
2013-03-15 10:53:00,33.5,17.9,29.82,WSW,247,17.4,17.4,52,-99.99,,,-99.99,tws,2013-03-15 14:53:00,
2013-03-15 10:58:00,34.2,18.2,29.82,SSE,157,17.5,17.5,51,-99.99,,,-99.99,tws,2013-03-15 14:58:00,
2013-03-15 11:03:00,35.3,19.2,29.82,SSE,157,16.7,16.7,51,-99.99,,,-99.99,tws,2013-03-15 15:03:00,
2013-03-15 11:08:00,35.1,18.7,29.81,SSE,157,16.6,16.6,51,-99.99,,,-99.99,tws,2013-03-15 15:08:00,
2013-03-15 11:13:00,35.6,18.5,29.81,South,180,21.1,21.1,49,-99.99,,,-99.99,tws,2013-03-15 15:13:00,
2013-03-15 11:18:00,36.0,18.3,29.80,WSW,247,13.5,13.5,48,-99.99,,,-99.99,tws,2013-03-15 15:18:00,
2013-03-15 11:23:00,35.7,18.9,29.80,SSE,157,14.4,14.4,50,-99.99,,,-99.99,tws,2013-03-15 15:23:00,
2013-03-15 11:29:00,37.0,19.4,29.80,South,180,7.7,7.7,48,-99.99,,,-99.99,tws,2013-03-15 15:29:00,
2013-03-15 11:34:00,36.2,18.9,29.80,SSE,157,6.6,6.6,49,-99.99,,,-99.99,tws,2013-03-15 15:34:00,
2013-03-15 11:39:00,37.3,19.2,29.79,South,180,12.5,12.5,47,-99.99,,,-99.99,tws,2013-03-15 15:39:00,
2013-03-15 11:44:00,37.2,19.5,29.79,SE,135,16.5,16.5,48,-99.99,,,-99.99,tws,2013-03-15 15:44:00,
2013-03-15 11:49:00,36.0,18.5,29.78,SSW,202,20.3,20.3,48,-99.99,,,-99.99,tws,2013-03-15 15:49:00,
2013-03-15 11:54:00,36.6,18.7,29.77,South,180,19.4,19.4,47,-99.99,,,-99.99,tws,2013-03-15 15:54:00,
2013-03-15 11:59:00,39.2,21.7,29.77,SSW,202,15.7,15.7,49,-99.99,,,-99.99,tws,2013-03-15 15:59:00,
2013-03-15 12:04:00,38.3,19.8,29.76,South,180,19.1,19.1,46,-99.99,,,-99.99,tws,2013-03-15 16:04:00,
2013-03-15 12:09:00,38.8,20.5,29.76,South,180,13.0,13.0,47,-99.99,,,-99.99,tws,2013-03-15 16:09:00,
2013-03-15 12:14:00,38.0,19.9,29.76,SSW,202,14.7,14.7,47,-99.99,,,-99.99,tws,2013-03-15 16:14:00,
2013-03-15 12:19:00,38.5,20.6,29.76,WSW,247,14.7,14.7,48,-99.99,,,-99.99,tws,2013-03-15 16:19:00,
2013-03-15 12:24:00,37.7,20.4,29.76,WSW,247,15.3,15.3,49,-99.99,,,-99.99,tws,2013-03-15 16:24:00,
2013-03-15 12:29:00,38.0,20.4,29.76,WSW,247,23.4,23.4,48,-99.99,,,-99.99,tws,2013-03-15 16:29:00,
2013-03-15 12:34:00,37.8,20.7,29.75,SSW,202,19.2,19.2,49,-99.99,,,-99.99,tws,2013-03-15 16:34:00,
2013-03-15 12:39:00,37.9,20.7,29.75,South,180,18.6,18.6,49,-99.99,,,-99.99,tws,2013-03-15 16:39:00,
2013-03-15 12:44:00,39.0,21.6,29.75,SSW,202,18.4,18.4,49,-99.99,,,-99.99,tws,2013-03-15 16:44:00,
2013-03-15 12:49:00,39.0,22.1,29.75,SE,135,19.5,19.5,50,-99.99,,,-99.99,tws,2013-03-15 16:49:00,
2013-03-15 12:54:00,39.0,21.5,29.74,SW,225,15.3,15.3,49,-99.99,,,-99.99,tws,2013-03-15 16:54:00,
2013-03-15 12:59:00,38.8,21.1,29.73,West,270,17.0,17.0,48,-99.99,,,-99.99,tws,2013-03-15 16:59:00,
2013-03-15 13:04:00,39.0,21.7,29.73,South,180,24.6,24.6,49,-99.99,,,-99.99,tws,2013-03-15 17:04:00,
2013-03-15 13:09:00,40.9,23.4,29.73,South,180,7.3,7.3,49,-99.99,,,-99.99,tws,2013-03-15 17:09:00,
2013-03-15 13:14:00,39.3,23.3,29.73,SSE,157,24.1,24.1,52,-99.99,,,-99.99,tws,2013-03-15 17:14:00,
2013-03-15 13:20:00,39.7,23.9,29.73,WSW,247,20.7,20.7,52,-99.99,,,-99.99,tws,2013-03-15 17:20:00,
2013-03-15 13:25:00,38.7,22.8,29.72,SW,225,22.1,22.1,52,-99.99,,,-99.99,tws,2013-03-15 17:25:00,
2013-03-15 13:30:00,38.8,23.4,29.72,SW,225,28.7,28.7,53,-99.99,,,-99.99,tws,2013-03-15 17:30:00,
2013-03-15 13:35:00,36.9,24.4,29.72,WSW,247,35.8,35.8,60,-99.99,,,-99.99,tws,2013-03-15 17:35:00,
2013-03-15 13:40:00,36.2,24.7,29.73,West,270,29.2,29.2,62,-99.99,,,-99.99,tws,2013-03-15 17:40:00,
2013-03-15 13:45:00,35.4,24.3,29.72,West,270,31.5,31.5,63,-99.99,,,-99.99,tws,2013-03-15 17:45:00,
2013-03-15 13:50:00,35.4,24.8,29.72,WSW,247,21.0,21.0,65,-99.99,,,-99.99,tws,2013-03-15 17:50:00,
2013-03-15 13:55:00,34.7,24.9,29.72,WSW,247,30.1,30.1,67,-99.99,,,-99.99,tws,2013-03-15 17:55:00,
2013-03-15 14:00:00,34.4,25.6,29.71,West,270,23.3,23.3,70,-99.99,,,-99.99,tws,2013-03-15 18:00:00,
2013-03-15 14:05:00,34.6,25.9,29.71,WSW,247,15.6,15.6,70,-99.99,,,-99.99,tws,2013-03-15 18:05:00,
2013-03-15 14:10:00,34.5,25.9,29.71,West,270,18.7,18.7,70,-99.99,,,-99.99,tws,2013-03-15 18:10:00,
2013-03-15 14:15:00,34.7,25.9,29.71,WSW,247,15.7,15.7,69,-99.99,,,-99.99,tws,2013-03-15 18:15:00,
2013-03-15 14:20:00,34.8,25.7,29.70,WSW,247,18.1,18.1,68,-99.99,,,-99.99,tws,2013-03-15 18:20:00,
2013-03-15 14:25:00,35.1,25.9,29.70,SSE,157,14.2,14.2,68,-99.99,,,-99.99,tws,2013-03-15 18:25:00,
2013-03-15 14:30:00,35.0,25.8,29.69,SW,225,22.4,22.4,69,-99.99,,,-99.99,tws,2013-03-15 18:30:00,
2013-03-15 14:35:00,35.3,25.8,29.69,SSW,202,11.1,11.1,68,-99.99,,,-99.99,tws,2013-03-15 18:35:00,
2013-03-15 14:40:00,35.2,26.4,29.68,WSW,247,9.9,9.9,70,-99.99,,,-99.99,tws,2013-03-15 18:40:00,
2013-03-15 14:45:00,35.2,26.4,29.68,SSW,202,16.1,16.1,70,-99.99,,,-99.99,tws,2013-03-15 18:45:00,
2013-03-15 14:50:00,35.1,26.5,29.68,South,180,16.9,16.9,70,-99.99,,,-99.99,tws,2013-03-15 18:50:00,
2013-03-15 14:55:00,35.5,26.8,29.68,SSW,202,8.4,8.4,70,-99.99,,,-99.99,tws,2013-03-15 18:55:00,
2013-03-15 15:00:00,35.7,27.0,29.68,South,180,16.6,16.6,70,-99.99,,,-99.99,tws,2013-03-15 19:00:00,
2013-03-15 15:05:00,36.2,27.6,29.68,SW,225,16.5,16.5,70,-99.99,,,-99.99,tws,2013-03-15 19:05:00,
2013-03-15 15:10:00,37.1,27.7,29.67,South,180,14.6,14.6,68,-99.99,,,-99.99,tws,2013-03-15 19:10:00,
2013-03-15 15:15:00,36.4,27.0,29.67,South,180,19.5,19.5,68,-99.99,,,-99.99,tws,2013-03-15 19:15:00,
2013-03-15 15:20:00,36.4,27.2,29.68,SSW,202,16.1,16.1,69,-99.99,,,-99.99,tws,2013-03-15 19:20:00,
2013-03-15 15:25:00,36.1,27.1,29.68,SW,225,24.3,24.3,69,-99.99,,,-99.99,tws,2013-03-15 19:25:00,
2013-03-15 15:30:00,36.1,27.0,29.68,WSW,247,19.1,19.1,69,-99.99,,,-99.99,tws,2013-03-15 19:30:00,
2013-03-15 15:35:00,36.1,26.9,29.67,SW,225,19.1,19.1,69,-99.99,,,-99.99,tws,2013-03-15 19:35:00,
2013-03-15 15:40:00,36.3,26.9,29.67,West,270,22.8,22.8,68,-99.99,,,-99.99,tws,2013-03-15 19:40:00,
2013-03-15 15:45:00,36.7,27.0,29.67,SW,225,18.4,18.4,67,-99.99,,,-99.99,tws,2013-03-15 19:45:00,
2013-03-15 15:50:00,36.6,26.5,29.67,SW,225,18.8,18.8,66,-99.99,,,-99.99,tws,2013-03-15 19:50:00,
2013-03-15 15:55:00,36.9,26.7,29.67,WSW,247,14.5,14.5,66,-99.99,,,-99.99,tws,2013-03-15 19:55:00,
2013-03-15 16:00:00,37.0,26.6,29.66,WNW,292,19.7,19.7,65,-99.99,,,-99.99,tws,2013-03-15 20:00:00,
2013-03-15 16:05:00,37.0,26.4,29.66,WSW,247,15.3,15.3,65,-99.99,,,-99.99,tws,2013-03-15 20:05:00,
2013-03-15 16:10:00,37.1,26.2,29.66,WSW,247,17.7,17.7,64,-99.99,,,-99.99,tws,2013-03-15 20:10:00,
2013-03-15 16:15:00,37.1,26.0,29.66,West,270,17.2,17.2,63,-99.99,,,-99.99,tws,2013-03-15 20:15:00,
2013-03-15 16:20:00,37.5,26.6,29.66,SW,225,13.5,13.5,64,-99.99,,,-99.99,tws,2013-03-15 20:20:00,
2013-03-15 16:25:00,37.4,26.5,29.66,West,270,13.9,13.9,64,-99.99,,,-99.99,tws,2013-03-15 20:25:00,
2013-03-15 16:30:00,37.2,26.4,29.66,WSW,247,20.5,20.5,64,-99.99,,,-99.99,tws,2013-03-15 20:30:00,
2013-03-15 16:35:00,37.2,26.4,29.66,WSW,247,20.2,20.2,64,-99.99,,,-99.99,tws,2013-03-15 20:35:00,
2013-03-15 16:40:00,37.7,26.9,29.66,WSW,247,16.9,16.9,64,-99.99,,,-99.99,tws,2013-03-15 20:40:00,
2013-03-15 16:46:00,37.3,26.6,29.66,SW,225,25.0,25.0,65,-99.99,,,-99.99,tws,2013-03-15 20:46:00,
2013-03-15 16:52:00,37.3,26.5,29.66,West,270,24.4,24.4,64,-99.99,,,-99.99,tws,2013-03-15 20:52:00,
2013-03-15 16:57:00,37.7,27.1,29.66,SW,225,21.2,21.2,65,-99.99,,,-99.99,tws,2013-03-15 20:57:00,
2013-03-15 17:02:00,37.4,26.7,29.66,West,270,15.2,15.2,65,-99.99,,,-99.99,tws,2013-03-15 21:02:00,
2013-03-15 17:07:00,37.1,26.8,29.66,SSW,202,22.2,22.2,66,-99.99,,,-99.99,tws,2013-03-15 21:07:00,
2013-03-15 17:12:00,37.1,27.1,29.66,WNW,292,15.9,15.9,67,-99.99,,,-99.99,tws,2013-03-15 21:12:00,
2013-03-15 17:17:00,37.2,26.9,29.66,WSW,247,14.7,14.7,66,-99.99,,,-99.99,tws,2013-03-15 21:17:00,
2013-03-15 17:23:00,37.1,27.2,29.66,SW,225,13.0,13.0,67,-99.99,,,-99.99,tws,2013-03-15 21:23:00,
2013-03-15 17:28:00,37.0,27.0,29.66,SW,225,19.0,19.0,67,-99.99,,,-99.99,tws,2013-03-15 21:28:00,
2013-03-15 17:33:00,37.1,27.4,29.66,WSW,247,17.4,17.4,67,-99.99,,,-99.99,tws,2013-03-15 21:33:00,
2013-03-15 17:38:00,37.1,27.5,29.66,SW,225,13.3,13.3,68,-99.99,,,-99.99,tws,2013-03-15 21:38:00,
2013-03-15 17:43:00,37.0,27.9,29.66,WSW,247,19.6,19.6,69,-99.99,,,-99.99,tws,2013-03-15 21:43:00,
2013-03-15 17:48:00,37.4,28.1,29.66,SW,225,12.2,12.2,68,-99.99,,,-99.99,tws,2013-03-15 21:48:00,
2013-03-15 17:53:00,37.1,28.1,29.66,SSW,202,19.0,19.0,69,-99.99,,,-99.99,tws,2013-03-15 21:53:00,
2013-03-15 17:58:00,37.4,28.9,29.66,South,180,9.5,9.5,71,-99.99,,,-99.99,tws,2013-03-15 21:58:00,
2013-03-15 18:03:00,36.6,28.6,29.66,SW,225,19.1,19.1,72,-99.99,,,-99.99,tws,2013-03-15 22:03:00,
2013-03-15 18:08:00,37.0,29.0,29.66,West,270,12.0,12.0,72,-99.99,,,-99.99,tws,2013-03-15 22:08:00,
2013-03-15 18:13:00,36.9,29.3,29.66,South,180,9.3,9.3,73,-99.99,,,-99.99,tws,2013-03-15 22:13:00,
2013-03-15 18:18:00,36.9,29.2,29.66,SW,225,12.1,12.1,73,-99.99,,,-99.99,tws,2013-03-15 22:18:00,
2013-03-15 18:23:00,36.9,29.5,29.66,SSE,157,10.9,10.9,74,-99.99,,,-99.99,tws,2013-03-15 22:23:00,
2013-03-15 18:28:00,36.9,29.6,29.66,WSW,247,8.7,8.7,74,-99.99,,,-99.99,tws,2013-03-15 22:28:00,
2013-03-15 18:33:00,36.3,29.4,29.66,SW,225,16.5,16.5,75,-99.99,,,-99.99,tws,2013-03-15 22:33:00,
2013-03-15 18:38:00,36.2,29.4,29.66,SSW,202,8.5,8.5,76,-99.99,,,-99.99,tws,2013-03-15 22:38:00,
2013-03-15 18:43:00,36.2,29.5,29.66,South,180,5.2,5.2,76,-99.99,,,-99.99,tws,2013-03-15 22:43:00,
2013-03-15 18:48:00,35.7,29.4,29.67,WSW,247,8.3,8.3,77,-99.99,,,-99.99,tws,2013-03-15 22:48:00,
2013-03-15 18:53:00,35.5,29.5,29.66,WSW,247,8.0,8.0,78,-99.99,,,-99.99,tws,2013-03-15 22:53:00,
2013-03-15 18:58:00,35.5,29.8,29.67,WSW,247,9.2,9.2,79,-99.99,,,-99.99,tws,2013-03-15 22:58:00,
2013-03-15 19:03:00,35.4,29.8,29.67,WSW,247,10.2,10.2,79,-99.99,,,-99.99,tws,2013-03-15 23:03:00,
2013-03-15 19:08:00,35.7,29.6,29.68,SW,225,19.4,19.4,78,-99.99,,,-99.99,tws,2013-03-15 23:08:00,
2013-03-15 19:13:00,35.7,29.9,29.68,WSW,247,8.9,8.9,79,-99.99,,,-99.99,tws,2013-03-15 23:13:00,
2013-03-15 19:18:00,35.3,29.9,29.68,WSW,247,15.4,15.4,80,-99.99,,,-99.99,tws,2013-03-15 23:18:00,
2013-03-15 19:23:00,34.6,29.2,29.68,WSW,247,10.7,10.7,80,-99.99,,,-99.99,tws,2013-03-15 23:23:00,
2013-03-15 19:28:00,34.7,29.6,29.68,West,270,11.6,11.6,81,-99.99,,,-99.99,tws,2013-03-15 23:28:00,
2013-03-15 19:34:00,34.6,29.3,29.68,West,270,10.2,10.2,80,-99.99,,,-99.99,tws,2013-03-15 23:34:00,
2013-03-15 19:39:00,34.8,29.3,29.68,South,180,9.5,9.5,80,-99.99,,,-99.99,tws,2013-03-15 23:39:00,
2013-03-15 19:44:00,34.6,29.1,29.68,SSW,202,5.4,5.4,80,-99.99,,,-99.99,tws,2013-03-15 23:44:00,
2013-03-15 19:49:00,34.5,29.2,29.68,SSW,202,9.1,9.1,80,-99.99,,,-99.99,tws,2013-03-15 23:49:00,
2013-03-15 19:54:00,34.8,29.4,29.68,WSW,247,10.9,10.9,80,-99.99,,,-99.99,tws,2013-03-15 23:54:00,
2013-03-15 19:59:00,35.0,29.4,29.68,WSW,247,4.7,4.7,80,-99.99,,,-99.99,tws,2013-03-15 23:59:00,
2013-03-15 20:04:00,35.0,29.2,29.68,SW,225,7.8,7.8,79,-99.99,,,-99.99,tws,2013-03-16 00:04:00,
2013-03-15 20:09:00,35.2,28.2,29.68,WSW,247,5.9,5.9,75,-99.99,,,-99.99,tws,2013-03-16 00:09:00,
2013-03-15 20:14:00,35.4,27.7,29.68,WSW,247,0.0,0.0,73,-99.99,,,-99.99,tws,2013-03-16 00:14:00,
2013-03-15 20:19:00,35.0,27.6,29.68,WSW,247,0.0,0.0,74,-99.99,,,-99.99,tws,2013-03-16 00:19:00,
2013-03-15 20:24:00,35.3,27.0,29.68,WSW,247,5.2,5.2,71,-99.99,,,-99.99,tws,2013-03-16 00:24:00,
2013-03-15 20:29:00,35.2,26.6,29.68,WSW,247,4.8,4.8,70,-99.99,,,-99.99,tws,2013-03-16 00:29:00,
2013-03-15 20:34:00,35.3,26.1,29.68,SW,225,5.6,5.6,68,-99.99,,,-99.99,tws,2013-03-16 00:34:00,
2013-03-15 20:39:00,35.4,25.8,29.68,NW,315,1.6,1.6,67,-99.99,,,-99.99,tws,2013-03-16 00:39:00,
2013-03-15 20:44:00,36.1,24.8,29.68,West,270,7.4,7.4,63,-99.99,,,-99.99,tws,2013-03-16 00:44:00,
2013-03-15 20:49:00,36.0,25.0,29.68,West,270,3.1,3.1,64,-99.99,,,-99.99,tws,2013-03-16 00:49:00,
2013-03-15 20:54:00,35.7,25.2,29.69,SW,225,6.0,6.0,65,-99.99,,,-99.99,tws,2013-03-16 00:54:00,
2013-03-15 20:59:00,36.1,25.0,29.69,SSW,202,3.3,3.3,63,-99.99,,,-99.99,tws,2013-03-16 00:59:00,
2013-03-15 21:04:00,35.5,24.6,29.69,West,270,3.3,3.3,64,-99.99,,,-99.99,tws,2013-03-16 01:04:00,
2013-03-15 21:09:00,36.2,24.7,29.69,SSW,202,3.8,3.8,62,-99.99,,,-99.99,tws,2013-03-16 01:09:00,
2013-03-15 21:14:00,36.2,24.6,29.69,West,270,8.7,8.7,62,-99.99,,,-99.99,tws,2013-03-16 01:14:00,
2013-03-15 21:19:00,34.7,24.7,29.69,WNW,292,0.0,0.0,66,-99.99,,,-99.99,tws,2013-03-16 01:19:00,
2013-03-15 21:24:00,35.7,24.5,29.70,WSW,247,8.1,8.1,63,-99.99,,,-99.99,tws,2013-03-16 01:24:00,
2013-03-15 21:29:00,35.7,24.1,29.70,WSW,247,7.8,7.8,62,-99.99,,,-99.99,tws,2013-03-16 01:29:00,
2013-03-15 21:34:00,35.8,24.1,29.70,West,270,6.3,6.3,62,-99.99,,,-99.99,tws,2013-03-16 01:34:00,
2013-03-15 21:39:00,34.5,24.3,29.69,West,270,3.3,3.3,66,-99.99,,,-99.99,tws,2013-03-16 01:39:00,
2013-03-15 21:44:00,35.6,24.2,29.69,West,270,5.0,5.0,62,-99.99,,,-99.99,tws,2013-03-16 01:44:00,
2013-03-15 21:49:00,36.3,23.8,29.69,West,270,16.7,16.7,60,-99.99,,,-99.99,tws,2013-03-16 01:49:00,
2013-03-15 21:54:00,36.1,23.6,29.69,West,270,11.3,11.3,60,-99.99,,,-99.99,tws,2013-03-16 01:54:00,
2013-03-15 21:59:00,36.0,23.8,29.70,West,270,8.8,8.8,61,-99.99,,,-99.99,tws,2013-03-16 01:59:00,
2013-03-15 22:04:00,35.3,23.7,29.70,West,270,8.3,8.3,62,-99.99,,,-99.99,tws,2013-03-16 02:04:00,
2013-03-15 22:09:00,35.5,23.6,29.70,West,270,13.9,13.9,61,-99.99,,,-99.99,tws,2013-03-16 02:09:00,
2013-03-15 22:14:00,36.1,23.6,29.70,SW,225,10.8,10.8,60,-99.99,,,-99.99,tws,2013-03-16 02:14:00,
2013-03-15 22:19:00,35.6,23.7,29.70,West,270,12.1,12.1,61,-99.99,,,-99.99,tws,2013-03-16 02:19:00,
2013-03-15 22:24:00,36.1,23.2,29.70,WNW,292,12.7,12.7,59,-99.99,,,-99.99,tws,2013-03-16 02:24:00,
2013-03-15 22:29:00,36.9,23.5,29.70,SW,225,9.3,9.3,58,-99.99,,,-99.99,tws,2013-03-16 02:29:00,
2013-03-15 22:34:00,36.4,23.9,29.71,West,270,5.6,5.6,60,-99.99,,,-99.99,tws,2013-03-16 02:34:00,
2013-03-15 22:39:00,35.6,23.9,29.71,WNW,292,6.1,6.1,62,-99.99,,,-99.99,tws,2013-03-16 02:39:00,
2013-03-15 22:44:00,36.3,24.0,29.71,West,270,4.9,4.9,60,-99.99,,,-99.99,tws,2013-03-16 02:44:00,
2013-03-15 22:49:00,35.5,24.1,29.71,NNW,337,6.7,6.7,62,-99.99,,,-99.99,tws,2013-03-16 02:49:00,
2013-03-15 22:54:00,36.2,23.5,29.71,WNW,292,13.5,13.5,59,-99.99,,,-99.99,tws,2013-03-16 02:54:00,
2013-03-15 22:59:00,36.7,23.8,29.71,West,270,2.5,2.5,59,-99.99,,,-99.99,tws,2013-03-16 02:59:00,
2013-03-15 23:04:00,37.5,23.0,29.71,WNW,292,20.0,20.0,55,-99.99,,,-99.99,tws,2013-03-16 03:04:00,
2013-03-15 23:09:00,36.9,24.0,29.72,NE,45,10.2,10.2,59,-99.99,,,-99.99,tws,2013-03-16 03:09:00,
2013-03-15 23:14:00,34.5,27.9,29.73,NNE,22,13.3,13.3,76,-99.99,,,-99.99,tws,2013-03-16 03:14:00,
2013-03-15 23:19:00,33.8,28.5,29.72,East,90,17.9,17.9,80,-99.99,,,-99.99,tws,2013-03-16 03:19:00,
2013-03-15 23:24:00,33.5,28.7,29.73,NE,45,17.4,17.4,82,-99.99,,,-99.99,tws,2013-03-16 03:24:00,
2013-03-15 23:29:00,33.4,28.9,29.73,NNE,22,18.7,18.7,83,-99.99,,,-99.99,tws,2013-03-16 03:29:00,
2013-03-15 23:34:00,33.6,29.2,29.73,North,360,14.6,14.6,83,-99.99,,,-99.99,tws,2013-03-16 03:34:00,
2013-03-15 23:39:00,33.6,29.2,29.73,NNE,22,15.1,15.1,83,-99.99,,,-99.99,tws,2013-03-16 03:39:00,
2013-03-15 23:44:00,33.7,29.2,29.73,North,0,11.4,11.4,83,-99.99,,,-99.99,tws,2013-03-16 03:44:00,
2013-03-15 23:49:00,33.5,28.9,29.73,NW,315,14.7,14.7,83,-99.99,,,-99.99,tws,2013-03-16 03:49:00,
2013-03-15 23:54:00,33.7,29.0,29.73,NNW,337,12.2,12.2,82,-99.99,,,-99.99,tws,2013-03-16 03:54:00,
2013-03-15 23:59:00,33.7,28.8,29.73,North,0,11.5,11.5,82,-99.99,,,-99.99,tws,2013-03-16 03:59:00,